Regional Weather Roundup
Issued by NWS Cleveland, OH

Home | Current Version | Previous Version | Text Only | Print | Product List | Glossary Off
Versions: 1 2 3 4 5 6 7 8 9 10 11 12 13 14 15 16 17 18 19 20 21 22 23 24 25 26 27 28 29 30 31 32 33 34 35 36 37 38 39 40 41 42 43 44 45 46 47 48 49 50

000
ASUS41 KCLE 240500
RWRCLE
OHIO REGIONAL WEATHER ROUNDUP
NATIONAL WEATHER SERVICE WILMINGTON, OH
100 AM EDT MON APR 24 2017

NOTE: "FAIR" INDICATES FEW OR NO CLOUDS BELOW 12,000 FEET WITH NO
SIGNIFICANT WEATHER AND/OR OBSTRUCTIONS TO VISIBILITY.

OHZ001>008-015>018-024>027-034-035-043-044-240600-
   NORTHWEST OHIO

CITY           SKY/WX    TMP DP  RH WIND       PRES   REMARKS
DEFIANCE       FAIR      43  37  79 CALM      30.05S
FINDLAY        FAIR      47  30  51 E6        30.03S
TOLEDO EXPRESS FAIR      45  33  63 CALM      30.05R
TOLEDO EXEC    FAIR      46  35  65 CALM      30.07R
LIMA           FAIR      46  31  55 NE7       30.02F
$$

OHZ009>014-019>023-028>033-038-089-240600-
   NORTHEAST OHIO

CITY           SKY/WX    TMP DP  RH WIND       PRES   REMARKS
CLE-HOPKINS    FAIR      45  36  70 CALM      30.08S
CLE-LAKEFRONT  FAIR      50  32  50 SE3       30.05S
CUY CO. ARPT   NOT AVBL
LORAIN-ELYRIA  FAIR      42  33  70 CALM      30.06S
ASHTABULA      FAIR      39  36  89 CALM      30.08S
AKRON-CANTON   MOCLDY    50  32  50 NE10      30.05S
WOOSTER        NOT AVBL
MANSFIELD      FAIR      48  32  53 NE7       30.04F
YOUNGSTOWN     MOCLDY    48  31  51 NE8       30.07R
$$

OHZ042-051>053-060>062-070>072-077>081-240600-
  SOUTHWEST OHIO

CITY           SKY/WX    TMP DP  RH WIND       PRES   REMARKS
CINC-COVINGTON MOCLDY    56  38  50 NE6       29.95S
CINC-LUNKEN    FAIR      47  44  90 N3        29.95F
HAMILTON       FAIR      52  39  61 N8        29.97F
DAYTON         NOT AVBL
WRIGHT-PAT AFB FAIR      49  41  73 N9        29.99F
DAYTON GENERAL FAIR      49  36  61 NE7       29.98F
WILMINGTON     FAIR      49  39  68 NE13      29.97F
$$

OHZ036-037-039>041-045>050-054>059-063>069-073>076-082>088-240600-
  CENTRAL AND SOUTHEAST OHIO

CITY           SKY/WX    TMP DP  RH WIND       PRES   REMARKS
COLUMBUS       FAIR      55  39  54 NE13      29.99F
OSU AIRPORT    FAIR      50  39  66 NE8       30.00F
BOLTON FIELD   NOT AVBL
RICKENBACK AFB NOT AVBL
NEWARK         FAIR      53  38  56 N5        30.00F
MARION         FAIR      45  34  65 NE9       30.03F
LANCASTER      FAIR      48  38  68 NE7       29.99F
ZANESVILLE     FAIR      53  33  46 N6        30.00S
NEW PHILLY     FAIR      55  38  52 E8        30.04R
$$




USA.gov is the U.S. government's official web portal to all federal, state and local government web resources and services.